Flag for United Kingdom Weather past 2 weeks in Glasgow, Scotland, United Kingdom

Now
39 °F

Overcast.


Feels Like: 34 °F
Forecast: 37 / 45 °F
Wind: 8 mph from West

Location: Glasgow Airport

Current Time: Mar 29, 2015 at 2:41:01 AM

Latest Report: Mar 29, 2015 at 2:20 AM


Visibility: N/A

Pressure: 29.36 "Hg

Humidity: 87%

Dew point: 36 °F

Location of GlasgowLocation

Historic Weather in Glasgow — Graph

°F

Glasgow temperature yesterday

Maximum temperature yesterday: 54 °F (at 10:50 AM)
Minimum temperature yesterday: 39 °F (at 10:50 PM)
Average temperature yesterday: 45 °F

Past Weeks' High & Low Weather Summary

 TemperatureHumidityPressure
High54 °F (Mar 18, 4:50 PM)100% (Mar 15, 6:20 AM)30.66 "Hg (Mar 15, 6:20 AM)
Low27 °F (Mar 15, 6:20 AM)44% (Mar 21, 2:20 PM)29.30 "Hg (Mar 26, 6:50 AM)
Average42 °F80%30.15 "Hg
* Reported Mar 14 12:20 AM — Mar 29 12:20 AM, Glasgow, Weather by CustomWeather, © 2015

Note: Actual official high and low records may vary slightly from our data, if they occured in-between our weather recording intervals... More about our weather records

Advertising

Glasgow weather history for previous 24 hours

 ConditionsComfort  
Time TempWeatherWind HumidityBarometerVisibility
12:20 AM
Sun, Mar 29
39 °FPassing clouds.6 mph93%29.33 "HgN/A
11:50 PM
Sat, Mar 28
39 °FLight rain. Mostly cloudy.10 mph93%29.33 "HgN/A
11:20 PM39 °FLight rain. Overcast.6 mph93%29.30 "Hg4 mi
10:50 PM39 °FLight rain. Overcast.6 mph93%29.30 "HgN/A
10:20 PM41 °FLight rain. Passing clouds.5 mph93%29.30 "HgN/A
9:50 PM41 °FLight rain. Mostly cloudy.2 mph93%29.33 "HgN/A
9:20 PM41 °FLight rain. Mostly cloudy.6 mph93%29.36 "Hg4 mi
8:50 PM41 °FLight rain. Passing clouds.5 mph93%29.36 "HgN/A
8:20 PM41 °FLight rain. Passing clouds.7 mph93%29.39 "HgN/A
7:50 PM41 °FLight rain. Mostly cloudy.9 mph87%29.39 "HgN/A
7:20 PM43 °FLight rain. Passing clouds.12 mph87%29.39 "HgN/A
6:50 PM43 °FQuite cool.13 mph87%29.42 "HgN/A
6:20 PM43 °FLight rain. Broken clouds.15 mph87%29.42 "HgN/A
5:50 PM45 °FLight rain. Partly sunny.15 mph81%29.42 "HgN/A
5:20 PM45 °FPassing clouds.15 mph81%29.42 "HgN/A
4:50 PM46 °FLight rain. Partly sunny.15 mph76%29.42 "HgN/A
4:20 PM46 °FScattered clouds.18 mph82%29.42 "HgN/A
3:50 PM46 °FScattered showers. Broken clouds.17 mph82%29.42 "HgN/A
3:20 PM48 °FScattered showers. Broken clouds.15 mph76%29.42 "HgN/A
2:50 PM48 °FBroken clouds.21 mph76%29.39 "HgN/A
2:20 PM48 °FSprinkles. Broken clouds.21 mph82%29.42 "HgN/A
1:50 PM48 °FMore clouds than sun.22 mph82%29.42 "HgN/A
1:20 PM48 °FOvercast.18 mph82%29.39 "HgN/A
12:50 PM50 °FPartly sunny.18 mph76%29.39 "HgN/A
12:20 PM50 °FOvercast.22 mph82%29.39 "HgN/A
11:50 AM50 °FOvercast.28 mph82%29.36 "HgN/A
11:20 AM52 °FMostly cloudy.23 mph82%29.33 "HgN/A
10:50 AM54 °FPartly sunny.21 mph88%29.30 "HgN/A
10:20 AM52 °FDrizzle. Low clouds.18 mph94%29.30 "Hg3 mi
9:50 AM52 °FLight rain. Low clouds.17 mph94%29.33 "Hg4 mi
9:20 AM52 °FLight rain. Low clouds.21 mph94%29.33 "Hg4 mi
8:50 AM52 °FLight rain. Mostly cloudy.25 mph88%29.33 "Hg4 mi
8:20 AM52 °FRain. Partly sunny.25 mph94%29.36 "Hg2 mi
7:50 AM50 °FRain. Mostly cloudy.17 mph94%29.36 "Hg2 mi
7:20 AM48 °FLight rain. Mostly cloudy.16 mph94%29.39 "Hg4 mi
6:50 AM45 °FLight rain. Low clouds.5 mph93%29.42 "Hg4 mi
6:20 AM43 °FLight rain. Low clouds.5 mph93%29.45 "Hg4 mi
5:50 AM41 °FLight rain. Overcast.6 mph100%29.50 "Hg4 mi
5:20 AM41 °FLight rain. Low clouds.7 mph93%29.53 "Hg2 mi
4:50 AM41 °FLight rain. Overcast.9 mph93%29.56 "Hg2 mi
4:20 AM41 °FLight rain. Overcast.9 mph87%29.59 "Hg5 mi
3:50 AM41 °FLight rain. Mostly cloudy.10 mph87%29.65 "HgN/A
3:20 AM41 °FLight rain. Passing clouds.10 mph87%29.68 "HgN/A
2:50 AM41 °FLight rain. Passing clouds.9 mph87%29.74 "HgN/A
2:20 AM43 °FLight rain. Passing clouds.9 mph76%29.77 "HgN/A
Weather by CustomWeather, © 2015

See weather overviewHow to use our weather pages